Weather in Yermolovka

Russia / Ulyanovsk Oblast     54°00′15″N   46°52′28″E
temp.,
°C
wind,
m/s
gust,
m/s
humid.,
%
clouds,
%
prec.,
mm/h
press.,
hPa
HPBL,
m
3 march, wed
wed301:00−3wnw389692 0.2 1003286
04:00−6wnw399784 0.3 1004227
07:00−5wnw4109591 0.1 1004506
10:00−5nw599095 0.3 1006794
13:00−5nw6989100 0.2 1007812
16:00−5nw61089100 0.4 1008735
19:00−6wnw51091100 0.2 1009817
22:00−7wnw41092100 0.3 1010707
4 march, thu
thu401:00−8wsw4119493 0.1 1009325
04:00−7wsw5129495 0.2 1008441
07:00−4wsw61493100 0.4 1005801
10:00−3wsw71391100 0.7 1003829
13:00−1wsw71494100 0.3 1000870
16:000w81493100 1.1 10001138
19:00−1wsw61296100 1.1 1000880
22:00−1wsw51197100 2.6 1001729
5 march, fri
fri501:00−2wsw2798100 2.1 1000448
04:00−1sw41197100 3.4 999664
07:00−1wsw41097100 1.3 998664
10:00−3n4797100 3.4 999333
13:00−3nnw5794100 0.8 1001637
16:00−4nnw4791100 1.1 1006688
19:00−10nw239582 0.1 101056
22:00−13wnw229762 0.1 101320
6 march, sat
sat601:00−14w119284 0.0 101420
04:00−14s118792 0.0 101420
07:00−14sse1287100 0.0 101420
10:00−10s1386100 0.0 1013151
13:00−6wsw248027 0.0 1012606
16:00−6wnw578847 0.3 1011805
19:00−9wnw499397 0.2 1011509
22:00−12wnw399598 0.3 1013436
7 march, sun
sun701:00−16wnw399671 0.0 1014237
04:00−18w389767 0.1 1015179
07:00−18wsw499775 0.0 1015199
10:00−13sw5118961 0.0 1013397
13:00−8sw7138181 0.0 1010911
16:00−7ssw8158490 0.0 1006994
19:00−6sw91791100 0.3 10041266
22:00−5sw81791100 1.4 10011262